sim
Sign-in with your pilot id or email,
or register
Callsign
Passwort

Schedule Details

Flight Number: RYR6131
Departure: Warsaw Modlin Airport (EPMO) at 05:35
Arrival: Fuerteventura Airport (GCFV) at 11:10
Route: Ryanair Passenger Schedule. Enter filed route here before submitting Pirep.

Weather Information
Getting current METAR information for EPMO 182000Z 36005KT CAVOK 11/M01 Q1031
Getting current METAR information for GCFV 182000Z 36016KT 9999 FEW045 18/11 Q1019

Schedule Frequency

Route Map